[[{"header":{"parameterUnit":"m.s-1","parameterCategory":1,"la1":30.2991,"la2":30.254,"lo1":-89.0895,"lo2":-89.0444,"dy":0.0017,"dx":0.0017,"nx":28,"ny":28,"refTime":"2025-06-13T21:00:00:Z","depth":0,"parameterNumber":2,"parameterNumberName":"U-component_of_WINDS"},"data":[0,0,0,0,0,0,0,0,0,0,0,0,0,0,0,0,0,0,0,0,0,0,0,0,0,0,0,0,0,0,0,0,0,0,0,0,0,0,0,0,0,0,0,0,0,0,0,0,0,0,0,0,0,0,0,0,0,0,3.6373,3.6372,0,3.6321,3.6321,3.632,3.6182,3.6179,3.6176,3.6173,3.6123,3.6124,3.6126,0,0,0,0,0,0,0,0,0,0,0,0,0,3.6354,3.6355,3.6373,3.6372,3.6372,3.6321,3.6321,3.632,3.6182,3.6179,3.6175,3.6172,3.6123,3.6124,3.6126,0,0,0,0,0,0,0,0,0,0,0,0,0,3.6339,3.6356,3.6373,3.6297,3.6289,3.6321,3.6321,3.632,3.6183,3.6179,3.6174,3.617,3.6122,3.6124,3.6126,3.6229,0,0,3.6133,3.6134,0,0,0,0,0,0,0,0,3.634,3.634,3.6309,3.6302,3.6294,3.6253,3.6296,3.6289,3.6184,3.6224,3.6173,3.6168,3.617,3.6168,3.6168,3.6227,3.6224,3.6133,3.6134,3.6135,3.6136,0,0,0,0,0,0,0,3.6341,3.6341,3.6352,3.6308,3.6299,3.6266,3.6259,3.6294,3.6223,3.622,3.621,3.6205,3.6165,3.6167,3.6166,3.6224,3.6133,3.6135,3.6136,3.6137,3.6361,3.6366,0,0,0,0,0,0,3.6353,3.6343,3.6354,3.6351,3.6306,3.627,3.6262,3.6271,3.6222,3.621,3.6209,3.6199,3.6165,3.6164,3.6164,3.6278,3.6135,3.6137,3.6139,3.6357,3.6362,3.6367,0,0,0,0,0,0,3.6353,3.6355,3.6356,3.6344,3.6342,3.6275,3.6286,3.6272,3.6273,3.6214,3.6201,3.6223,3.6162,3.6161,3.6213,3.6274,3.6138,3.614,3.6351,3.6358,3.6365,3.6509,0,0,0,0,0,0,3.6353,3.6356,3.6394,3.6346,3.6343,3.6406,3.629,3.6274,3.6277,3.6263,3.6223,3.6213,3.6158,3.621,3.6215,3.6275,3.6142,3.6345,3.6354,3.6362,3.6498,3.652,3.6538,0,0,0,0,0,3.6353,3.6437,3.6396,3.6398,3.6388,3.6409,3.6408,3.6342,3.6283,3.632,3.6282,3.6214,3.6268,3.6217,3.6221,3.6282,3.6341,3.6352,3.6362,3.6489,3.6515,3.6538,0,0,0,0,0,0,3.6495,3.643,3.6383,3.6455,3.6439,3.6386,3.6431,3.6373,3.6374,3.6361,3.6281,3.6273,3.6336,3.6315,3.6259,3.6378,3.6293,3.6305,3.6389,3.6413,3.6433,3.6435,3.6144,0,0,0,0,0,3.6535,3.6556,3.6499,3.6567,3.6561,3.6498,3.6505,3.6456,3.6436,3.6429,3.6395,3.6379,3.6392,3.6402,3.6411,3.6496,3.6484,3.654,3.656,3.6577,3.6587,3.6628,3.6651,3.6402,3.6402,3.6401,0,0,3.6616,3.6584,3.6602,3.6595,3.6576,3.6601,3.6493,3.6524,3.6541,3.6434,3.6479,3.6455,3.6432,3.65,3.6529,3.6484,3.6654,3.659,3.6604,3.6605,3.6641,3.6665,3.6686,3.6409,3.6407,3.6406,0,0,3.6777,3.6756,3.6808,3.6792,3.6766,3.6723,3.6737,3.6693,3.6671,3.6716,3.6636,3.6656,3.6681,3.6667,3.6663,3.682,3.6757,3.6826,3.6929,3.697,3.699,3.7006,3.7059,3.7079,3.6837,3.6837,3.6838,0,3.6882,3.6914,3.6844,3.6879,3.6877,3.6782,3.6834,3.6823,3.6801,3.6803,3.6754,3.6782,3.676,3.6822,3.6861,3.6863,3.6874,3.6828,3.6992,3.7009,3.7023,3.7073,3.7093,3.6846,3.6845,3.6844,3.6843,0,3.7043,3.7067,3.7114,3.7093,3.7097,3.7142,3.7079,3.7092,3.7044,3.7007,3.7053,3.7024,3.7024,3.7037,3.6991,3.7093,3.7066,3.7007,3.6919,3.7057,3.7101,3.712,3.6857,3.6854,3.6852,3.685,0,0,3.7288,3.7228,3.7246,3.7235,3.7199,3.7216,3.7258,3.7256,3.7268,3.7258,3.7288,3.7312,3.7256,3.7253,3.7205,3.7241,3.7363,3.7177,3.7175,3.7209,3.7471,3.7512,3.7536,3.7323,3.7327,3.733,3.7471,0,3.7435,3.7499,3.7437,3.7513,3.7533,3.7443,3.7479,3.7461,3.7428,3.7441,3.7406,3.7422,3.735,3.7346,3.7379,3.7342,3.7414,3.7331,3.7349,3.7351,3.7353,3.7559,3.7604,3.7739,3.7489,3.7492,3.7494,0,3.7615,3.7611,3.7688,3.7646,3.7653,3.7685,3.7678,3.7693,3.7672,3.7645,3.7642,3.7583,3.762,3.7538,3.7587,3.7532,3.7537,3.752,3.7524,3.7519,3.7428,3.7557,3.7781,3.7799,3.7522,3.7519,3.7517,0,3.7781,3.7796,3.7842,3.7837,3.779,3.7814,3.7797,3.777,3.7774,3.777,3.777,3.7772,3.7772,3.7774,3.7718,3.7664,3.7773,3.7687,3.7751,3.7752,3.7774,3.7772,3.7997,3.7785,3.7785,3.7784,3.7784,0,3.795,3.7999,3.7916,3.7945,3.7998,3.7928,3.7983,3.7956,3.7934,3.7956,3.7882,3.7904,3.783,3.7845,3.7802,3.7848,3.785,3.7828,3.7815,3.7832,3.7834,3.7831,3.7818,3.779,3.7788,3.7787,3.7786,0,3.8141,3.8088,3.8133,3.8085,3.8075,3.8116,3.8075,3.81,3.8063,3.8092,3.8095,3.8038,3.8052,3.7997,3.8002,3.7973,3.804,3.8014,3.8046,3.8036,3.8101,3.8095,3.8328,3.8354,3.813,3.8132,3.8134,0,3.825,3.8286,3.8242,3.8251,3.8236,3.8252,3.8254,3.8189,3.8195,3.8173,3.82,3.8208,3.821,3.8237,3.8195,3.8199,3.817,3.8252,3.8169,3.8185,3.8166,3.8163,3.8165,3.8267,3.827,3.8272,3.8274,0,3.8447,3.8419,3.8425,3.8422,3.8427,3.8422,3.8411,3.8424,3.8352,3.8363,3.8376,3.8377,3.8382,3.839,3.8385,3.8367,3.8309,3.8301,3.8315,3.833,3.8346,3.8334,3.8088,3.8295,3.8293,3.8291,3.829,3.8289,3.8597,3.8624,3.8597,3.8606,3.8592,3.8584,3.8604,3.857,3.8579,3.8576,3.8538,3.8558,3.8536,3.8523,3.8511,3.8526,3.8487,3.8509,3.8513,3.8519,3.8528,3.8348,3.8525,3.8525,3.8524,3.8524,3.8523,0,3.8786,3.8765,3.8774,3.8762,3.8769,3.8714,3.8701,3.871,3.8728,3.8712,3.8716,3.873,3.8738,3.8698,3.8701,3.872,3.8693,3.8722,3.8718,3.8714,3.8564,3.855,3.8744,3.8744,3.8744,3.8744,3.8744,3.8744,3.8885,3.8927,3.8896,3.893,3.8908,3.8926,3.8922,3.8915,3.8902,3.892,3.8926,3.89,3.8875,3.8875,3.8879,3.8868,3.887,3.8908,3.8887,3.8747,3.8725,3.8704,3.869,3.8911,3.8911,3.9035,3.9036,3.9037]},{"header":{"parameterUnit":"m.s-1","parameterCategory":1,"la1":30.2991,"la2":30.254,"lo1":-89.0895,"lo2":-89.0444,"dy":0.0017,"dx":0.0017,"nx":28,"ny":28,"refTime":"2025-06-13T21:00:00:Z","depth":0,"parameterNumber":3,"parameterNumberName":"V-component_of_WINDS"},"data":[0,0,0,0,0,0,0,0,0,0,0,0,0,0,0,0,0,0,0,0,0,0,0,0,0,0,0,0,0,0,0,0,0,0,0,0,0,0,0,0,0,0,0,0,0,0,0,0,0,0,0,0,0,0,0,0,0,0,3.9968,3.997,0,4.0118,4.0119,4.0121,4.012,4.0118,4.0117,4.0115,4.0263,4.0268,4.0274,0,0,0,0,0,0,0,0,0,0,0,0,0,3.9676,3.9681,3.9968,3.997,3.9972,4.0117,4.0119,4.0121,4.0121,4.0118,4.0116,4.0114,4.0261,4.0268,4.0274,0,0,0,0,0,0,0,0,0,0,0,0,0,3.9812,3.9683,3.9968,3.9989,3.9993,4.0117,4.0119,4.0122,4.0121,4.0118,4.0115,4.0113,4.0258,4.0267,4.0275,4.0387,0,0,4.0302,4.0305,0,0,0,0,0,0,0,0,3.9804,3.9822,3.9984,3.9988,3.9992,4.0098,4.007,4.021,4.0122,4.0072,4.0115,4.0111,4.021,4.0222,4.0256,4.0393,4.04,4.0302,4.0308,4.0311,4.0314,0,0,0,0,0,0,0,3.9795,3.9816,4.0027,3.9987,3.9991,3.9989,4.0005,4.0097,4.0155,4.0076,4.0077,4.0095,4.0211,4.0248,4.026,4.0402,4.0302,4.031,4.0315,4.0318,4.0634,4.0637,0,0,0,0,0,0,3.9782,3.9808,4.0022,4.0032,3.9889,3.9997,4.0015,4.0067,4.0154,4.0165,4.0097,4.0094,4.0235,4.025,4.0265,4.0399,4.0311,4.0319,4.0324,4.063,4.0634,4.0638,0,0,0,0,0,0,3.9775,3.9801,4.0016,3.992,3.9947,4.0005,4.0063,4.0071,4.0108,4.017,4.018,4.0124,4.0233,4.0253,4.0356,4.0404,4.0323,4.0331,4.0627,4.0632,4.0636,4.0669,0,0,0,0,0,0,3.9767,3.9799,3.9843,3.9921,3.9953,4.0107,4.0066,4.0076,4.0123,4.0121,4.0198,4.0208,4.0232,4.0343,4.0364,4.0414,4.0338,4.0623,4.0629,4.0635,4.0664,4.0674,4.0683,0,0,0,0,0,3.9757,3.9846,3.9846,3.9872,4.001,4.011,4.0128,4.0155,4.0127,4.0171,4.021,4.0206,4.0395,4.0354,4.0378,4.0431,4.062,4.0627,4.0634,4.0659,4.0672,4.0683,0,0,0,0,0,0,3.9772,3.9857,3.9857,3.9975,4.0035,4.011,4.0167,4.0168,4.0236,4.0231,4.026,4.0278,4.038,4.0416,4.0368,4.0541,4.0504,4.0516,4.0514,4.0527,4.0537,4.0526,4.0345,0,0,0,0,0,3.9789,3.9865,3.9935,4.0032,4.0062,4.0109,4.0154,4.0169,4.0232,4.0257,4.0304,4.0364,4.0436,4.0484,4.0554,4.0668,4.0683,4.0716,4.0726,4.0734,4.0744,4.0804,4.0819,4.0661,4.0661,4.0661,0,0,3.9825,3.9881,3.9927,4.0036,4.0085,4.016,4.013,4.0212,4.0268,4.0269,4.0369,4.0405,4.0473,4.0582,4.0632,4.0615,4.079,4.0743,4.0749,4.0755,4.0813,4.0828,4.0841,4.0666,4.0665,4.0665,0,0,3.993,3.9981,4.0066,4.0115,4.0189,4.0219,4.0239,4.0313,4.0337,4.0438,4.044,4.0505,4.063,4.0678,4.0719,4.0837,4.0834,4.0859,4.091,4.0968,4.098,4.0991,4.1032,4.1046,4.0869,4.0869,4.0869,0,3.9965,4.0081,4.0109,4.0191,4.0238,4.0243,4.0328,4.0373,4.0465,4.0496,4.0476,4.0631,4.0678,4.0796,4.0825,4.0858,4.088,4.0851,4.0977,4.0988,4.0999,4.1037,4.1053,4.0872,4.0871,4.0871,4.0871,0,4.012,4.02,4.0259,4.0349,4.0402,4.0485,4.0523,4.0573,4.0583,4.0614,4.0715,4.077,4.0851,4.088,4.0891,4.0999,4.0986,4.0971,4.0933,4.1016,4.1052,4.1068,4.0875,4.0874,4.0874,4.0873,0,0,4.024,4.0343,4.0364,4.0403,4.0484,4.0545,4.0626,4.0706,4.0747,4.081,4.0877,4.0981,4.0967,4.1013,4.1028,4.108,4.1167,4.1058,4.106,4.1075,4.1286,4.1297,4.1314,4.1165,4.1168,4.1171,4.128,0,4.0352,4.0499,4.0525,4.0652,4.0725,4.0729,4.0799,4.0854,4.0885,4.0949,4.0981,4.1054,4.1031,4.1059,4.1109,4.1146,4.121,4.1138,4.1226,4.1229,4.1208,4.1333,4.1345,4.1446,4.1295,4.1297,4.1299,0,4.0503,4.057,4.0705,4.0772,4.0804,4.0867,4.094,4.1002,4.1063,4.1082,4.1132,4.1141,4.1222,4.1181,4.1292,4.1242,4.1279,4.1302,4.1306,4.1315,4.1269,4.1344,4.1479,4.1494,4.1322,4.1321,4.1319,0,4.0575,4.0698,4.0794,4.0828,4.091,4.0954,4.099,4.1049,4.1094,4.1157,4.1186,4.1257,4.1296,4.135,4.1376,4.1344,4.1484,4.1446,4.15,4.1499,4.1529,4.1527,4.1671,4.1554,4.1554,4.1554,4.1553,0,4.0697,4.0779,4.0828,4.0887,4.0977,4.1004,4.1092,4.1127,4.1178,4.1242,4.1249,4.1308,4.134,4.1403,4.1423,4.1511,4.1528,4.1543,4.1548,4.1543,4.1541,4.1567,4.156,4.1558,4.1557,4.1556,4.1555,0,4.0793,4.083,4.0934,4.1002,4.1021,4.1085,4.1142,4.1198,4.1227,4.1307,4.1327,4.1373,4.1447,4.1478,4.1569,4.1583,4.1682,4.1682,4.1662,4.1663,4.1715,4.1709,4.188,4.1903,4.1772,4.1773,4.1774,0,4.0868,4.0931,4.1006,4.105,4.1087,4.1158,4.1203,4.1232,4.1279,4.1351,4.1398,4.1472,4.1533,4.165,4.169,4.1758,4.1759,4.1814,4.1769,4.1761,4.1758,4.1753,4.1758,4.1822,4.1823,4.1824,4.1825,0,4.0997,4.1012,4.1079,4.1151,4.1206,4.1264,4.1321,4.1355,4.1392,4.1443,4.152,4.1567,4.1659,4.1732,4.1802,4.1836,4.1836,4.1839,4.1855,4.185,4.1835,4.1842,4.1683,4.1835,4.1834,4.1833,4.1833,4.1832,4.1085,4.114,4.1201,4.1274,4.1319,4.1371,4.1426,4.1462,4.1527,4.1605,4.1617,4.1697,4.1753,4.1848,4.1884,4.1946,4.1932,4.1955,4.1961,4.1966,4.1968,4.1826,4.1959,4.1959,4.1958,4.1958,4.1958,0,4.1213,4.1251,4.1319,4.1398,4.1454,4.145,4.1512,4.1559,4.163,4.1683,4.1743,4.1828,4.1898,4.1942,4.2012,4.2052,4.2054,4.2069,4.2066,4.2073,4.1978,4.1957,4.2067,4.2067,4.2067,4.2067,4.2067,4.2067,4.1286,4.1378,4.1399,4.1512,4.155,4.163,4.1665,4.1712,4.1754,4.185,4.1909,4.1937,4.1986,4.2058,4.2121,4.2132,4.2156,4.2172,4.2182,4.2092,4.2081,4.207,4.205,4.2178,4.2178,4.2273,4.2273,4.2274]}]]